Year,Month,Day,Hour,Minute,Value (Times are PST for temperature in C)
2006,10,27,00,00,12.40
2006,10,27,00,01,12.30
2006,10,27,00,02,12.30
2006,10,27,00,03,12.20
2006,10,27,00,04,12.20
2006,10,27,00,05,12.20
2006,10,27,00,06,12.20
2006,10,27,00,07,12.20
2006,10,27,00,08,12.20
2006,10,27,00,09,12.20
2006,10,27,00,10,12.20
2006,10,27,00,11,12.20
2006,10,27,00,12,12.20
2006,10,27,00,13,12.20
2006,10,27,00,14,12.20
2006,10,27,00,15,12.20
2006,10,27,00,16,12.10
2006,10,27,00,17,12.20
2006,10,27,00,18,12.20
2006,10,27,00,19,12.20
2006,10,27,00,20,12.20
2006,10,27,00,21,12.20
2006,10,27,00,22,12.20
2006,10,27,00,23,12.20
2006,10,27,00,24,12.20
2006,10,27,00,25,12.20
2006,10,27,00,26,12.20
2006,10,27,00,27,12.20
2006,10,27,00,28,12.20
2006,10,27,00,29,12.20
2006,10,27,00,30,12.20
2006,10,27,00,31,12.20
2006,10,27,00,32,12.20
2006,10,27,00,33,12.20
2006,10,27,00,34,12.20
2006,10,27,00,35,12.20
2006,10,27,00,36,12.20
2006,10,27,00,37,12.20
2006,10,27,00,38,12.20
2006,10,27,00,39,12.20
2006,10,27,00,40,12.20
2006,10,27,00,41,12.20
2006,10,27,00,42,12.20
2006,10,27,00,43,12.20
2006,10,27,00,44,12.10
2006,10,27,00,45,12.20
2006,10,27,00,46,12.20
2006,10,27,00,47,12.20
2006,10,27,00,48,12.20
2006,10,27,00,49,12.20
2006,10,27,00,50,12.10
2006,10,27,00,51,12.10
2006,10,27,00,52,12.10
2006,10,27,00,53,12.20
2006,10,27,00,54,12.20
2006,10,27,00,55,12.20
2006,10,27,00,56,12.20
2006,10,27,00,57,12.20
2006,10,27,00,58,12.30
2006,10,27,00,59,12.30
2006,10,27,01,00,12.30
2006,10,27,01,01,12.30
2006,10,27,01,02,12.30
2006,10,27,01,03,12.30
2006,10,27,01,04,12.30
2006,10,27,01,05,12.20
2006,10,27,01,06,12.20
2006,10,27,01,07,12.20
2006,10,27,01,08,12.20
2006,10,27,01,09,12.20
2006,10,27,01,10,12.10
2006,10,27,01,11,12.00
2006,10,27,01,12,12.00
2006,10,27,01,13,12.00
2006,10,27,01,14,12.00
2006,10,27,01,15,12.00
2006,10,27,01,16,11.90
2006,10,27,01,17,11.90
2006,10,27,01,18,11.80
2006,10,27,01,19,11.80
2006,10,27,01,20,11.80
2006,10,27,01,21,11.80
2006,10,27,01,22,11.80
2006,10,27,01,23,11.80
2006,10,27,01,24,11.80
2006,10,27,01,25,11.80
2006,10,27,01,26,11.80
2006,10,27,01,27,11.80
2006,10,27,01,28,11.80
2006,10,27,01,29,11.80
2006,10,27,01,30,11.80
2006,10,27,01,31,11.80
2006,10,27,01,32,11.80
2006,10,27,01,33,11.80
2006,10,27,01,34,11.90
2006,10,27,01,35,12.00
2006,10,27,01,36,12.00
2006,10,27,01,37,12.00
2006,10,27,01,38,12.00
2006,10,27,01,39,11.90
2006,10,27,01,40,11.90
2006,10,27,01,41,11.90
2006,10,27,01,42,11.90
2006,10,27,01,43,11.80
2006,10,27,01,44,11.80
2006,10,27,01,45,12.00
2006,10,27,01,46,12.10
2006,10,27,01,47,12.20
2006,10,27,01,48,12.30
2006,10,27,01,49,12.30
2006,10,27,01,50,12.40
2006,10,27,01,51,12.50
2006,10,27,01,52,12.50
2006,10,27,01,53,12.50
2006,10,27,01,54,12.60
2006,10,27,01,55,12.60
2006,10,27,01,56,12.60
2006,10,27,01,57,12.70
2006,10,27,01,58,12.70
2006,10,27,01,59,12.70
2006,10,27,02,00,12.70
2006,10,27,02,01,12.70
2006,10,27,02,02,12.80
2006,10,27,02,03,12.80
2006,10,27,02,04,12.80
2006,10,27,02,05,12.80
2006,10,27,02,06,12.80
2006,10,27,02,07,12.80
2006,10,27,02,08,12.80
2006,10,27,02,09,12.80
2006,10,27,02,10,12.80
2006,10,27,02,11,12.80
2006,10,27,02,12,12.80
2006,10,27,02,13,12.80
2006,10,27,02,14,12.80
2006,10,27,02,15,12.80
2006,10,27,02,16,12.80
2006,10,27,02,17,12.80
2006,10,27,02,18,12.80
2006,10,27,02,19,12.80
2006,10,27,02,20,12.80
2006,10,27,02,21,12.80
2006,10,27,02,22,12.80
2006,10,27,02,23,12.80
2006,10,27,02,24,12.80
2006,10,27,02,25,12.80
2006,10,27,02,26,12.80
2006,10,27,02,27,12.80
2006,10,27,02,28,12.80
2006,10,27,02,29,12.80
2006,10,27,02,30,12.90
2006,10,27,02,31,12.90
2006,10,27,02,32,12.90
2006,10,27,02,33,12.90
2006,10,27,02,34,12.90
2006,10,27,02,35,12.90
2006,10,27,02,36,12.90
2006,10,27,02,37,12.90
2006,10,27,02,38,12.90
2006,10,27,02,39,12.90
2006,10,27,02,40,12.90
2006,10,27,02,41,13.00
2006,10,27,02,42,13.00
2006,10,27,02,43,13.00
2006,10,27,02,44,13.00
2006,10,27,02,45,13.00
2006,10,27,02,46,13.00
2006,10,27,02,47,13.00
2006,10,27,02,48,13.00
2006,10,27,02,49,13.00
2006,10,27,02,50,13.00
2006,10,27,02,51,13.00
2006,10,27,02,52,13.00
2006,10,27,02,53,13.00
2006,10,27,02,54,13.00
2006,10,27,02,55,13.10
2006,10,27,02,56,13.10
2006,10,27,02,57,13.10
2006,10,27,02,58,13.10
2006,10,27,02,59,13.10
2006,10,27,03,00,13.10
2006,10,27,03,01,13.10
2006,10,27,03,02,13.10
2006,10,27,03,03,13.10
2006,10,27,03,04,13.20
2006,10,27,03,05,13.20
2006,10,27,03,06,13.20
2006,10,27,03,07,13.20
2006,10,27,03,08,13.20
2006,10,27,03,09,13.20
2006,10,27,03,10,13.30
2006,10,27,03,11,13.30
2006,10,27,03,12,13.30
2006,10,27,03,13,13.30
2006,10,27,03,14,13.30
2006,10,27,03,15,13.30
2006,10,27,03,16,13.30
2006,10,27,03,17,13.30
2006,10,27,03,18,13.30
2006,10,27,03,19,13.30
2006,10,27,03,20,13.30
2006,10,27,03,21,13.30
2006,10,27,03,22,13.30
2006,10,27,03,23,13.30
2006,10,27,03,24,13.30
2006,10,27,03,25,13.30
2006,10,27,03,26,13.30
2006,10,27,03,27,13.30
2006,10,27,03,28,13.30
2006,10,27,03,29,13.30
2006,10,27,03,30,13.30
2006,10,27,03,31,13.30
2006,10,27,03,32,13.30
2006,10,27,03,33,13.20
2006,10,27,03,34,13.20
2006,10,27,03,35,13.20
2006,10,27,03,36,13.20
2006,10,27,03,37,13.20
2006,10,27,03,38,13.20
2006,10,27,03,39,13.20
2006,10,27,03,40,13.20
2006,10,27,03,41,13.20
2006,10,27,03,42,13.20
2006,10,27,03,43,13.30
2006,10,27,03,44,13.30
2006,10,27,03,45,13.30
2006,10,27,03,46,13.30
2006,10,27,03,47,13.30
2006,10,27,03,48,13.30
2006,10,27,03,49,13.30
2006,10,27,03,50,13.30
2006,10,27,03,51,13.30
2006,10,27,03,52,13.30
2006,10,27,03,53,13.30
2006,10,27,03,54,13.30
2006,10,27,03,55,13.30
2006,10,27,03,56,13.30
2006,10,27,03,57,13.30
2006,10,27,03,58,13.30
2006,10,27,03,59,13.30
2006,10,27,04,00,13.30
2006,10,27,04,01,13.30
2006,10,27,04,02,13.20
2006,10,27,04,03,13.20
2006,10,27,04,04,13.20
2006,10,27,04,05,13.20
2006,10,27,04,06,13.20
2006,10,27,04,07,13.20
2006,10,27,04,08,13.20
2006,10,27,04,09,13.20
2006,10,27,04,10,13.10
2006,10,27,04,11,13.10
2006,10,27,04,12,13.10
2006,10,27,04,13,13.10
2006,10,27,04,14,13.10
2006,10,27,04,15,13.10
2006,10,27,04,16,13.10
2006,10,27,04,17,13.00
2006,10,27,04,18,13.00
2006,10,27,04,19,13.00
2006,10,27,04,20,13.00
2006,10,27,04,21,13.00
2006,10,27,04,22,12.90
2006,10,27,04,23,12.90
2006,10,27,04,24,12.90
2006,10,27,04,25,12.90
2006,10,27,04,26,12.90
2006,10,27,04,27,12.90
2006,10,27,04,28,12.90
2006,10,27,04,29,12.90
2006,10,27,04,30,12.90
2006,10,27,04,31,12.80
2006,10,27,04,32,12.80
2006,10,27,04,33,12.80
2006,10,27,04,34,12.80
2006,10,27,04,35,12.80
2006,10,27,04,36,12.80
2006,10,27,04,37,12.80
2006,10,27,04,38,12.80
2006,10,27,04,39,12.80
2006,10,27,04,40,12.80
2006,10,27,04,41,12.80
2006,10,27,04,42,12.80
2006,10,27,04,43,12.90
2006,10,27,04,44,12.90
2006,10,27,04,45,12.90
2006,10,27,04,46,12.90
2006,10,27,04,47,12.90
2006,10,27,04,48,12.90
2006,10,27,04,49,12.90
2006,10,27,04,50,13.00
2006,10,27,04,51,13.00
2006,10,27,04,52,13.00
2006,10,27,04,53,13.00
2006,10,27,04,54,13.00
2006,10,27,04,55,13.00
2006,10,27,04,56,13.00
2006,10,27,04,57,13.00
2006,10,27,04,58,13.00
2006,10,27,04,59,13.00
2006,10,27,05,00,13.00
2006,10,27,05,01,13.00
2006,10,27,05,02,13.00
2006,10,27,05,03,13.10
2006,10,27,05,04,13.10
2006,10,27,05,05,13.00
2006,10,27,05,06,13.00
2006,10,27,05,07,13.00
2006,10,27,05,08,13.10
2006,10,27,05,09,13.10
2006,10,27,05,10,13.10
2006,10,27,05,11,13.10
2006,10,27,05,12,13.10
2006,10,27,05,13,13.10
2006,10,27,05,14,13.10
2006,10,27,05,15,13.10
2006,10,27,05,16,13.10
2006,10,27,05,17,13.10
2006,10,27,05,18,13.10
2006,10,27,05,19,13.10
2006,10,27,05,20,13.10
2006,10,27,05,21,13.10
2006,10,27,05,22,13.20
2006,10,27,05,23,13.20
2006,10,27,05,24,13.20
2006,10,27,05,25,13.20
2006,10,27,05,26,13.20
2006,10,27,05,27,13.20
2006,10,27,05,28,13.20
2006,10,27,05,29,13.30
2006,10,27,05,30,13.30
2006,10,27,05,31,13.30
2006,10,27,05,32,13.30
2006,10,27,05,33,13.30
2006,10,27,05,34,13.30
2006,10,27,05,35,13.30
2006,10,27,05,36,13.30
2006,10,27,05,37,13.30
2006,10,27,05,38,13.30
2006,10,27,05,39,13.30
2006,10,27,05,40,13.30
2006,10,27,05,41,13.30
2006,10,27,05,42,13.30
2006,10,27,05,43,13.30
2006,10,27,05,44,13.30
2006,10,27,05,45,13.30
2006,10,27,05,46,13.30
2006,10,27,05,47,13.30
2006,10,27,05,48,13.30
2006,10,27,05,49,13.30
2006,10,27,05,50,13.30
2006,10,27,05,51,13.30
2006,10,27,05,52,13.30
2006,10,27,05,53,13.30
2006,10,27,05,54,13.30
2006,10,27,05,55,13.30
2006,10,27,05,56,13.30
2006,10,27,05,57,13.30
2006,10,27,05,58,13.30
2006,10,27,05,59,13.30
2006,10,27,06,00,13.30
2006,10,27,06,01,13.30
2006,10,27,06,02,13.30
2006,10,27,06,03,13.30
2006,10,27,06,04,13.30
2006,10,27,06,05,13.30
2006,10,27,06,06,13.30
2006,10,27,06,07,13.30
2006,10,27,06,08,13.30
2006,10,27,06,09,13.30
2006,10,27,06,10,13.20
2006,10,27,06,11,13.20
2006,10,27,06,12,13.20
2006,10,27,06,13,13.20
2006,10,27,06,14,13.20
2006,10,27,06,15,13.20
2006,10,27,06,16,13.20
2006,10,27,06,17,13.10
2006,10,27,06,18,13.10
2006,10,27,06,19,13.10
2006,10,27,06,20,13.10
2006,10,27,06,21,13.20
2006,10,27,06,22,13.20
2006,10,27,06,23,13.20
2006,10,27,06,24,13.20
2006,10,27,06,25,13.20
2006,10,27,06,26,13.20
2006,10,27,06,27,13.20
2006,10,27,06,28,13.20
2006,10,27,06,29,13.20
2006,10,27,06,30,13.20
2006,10,27,06,31,13.20
2006,10,27,06,32,13.20
2006,10,27,06,33,13.20
2006,10,27,06,34,13.20
2006,10,27,06,35,13.20
2006,10,27,06,36,13.20
2006,10,27,06,37,13.20
2006,10,27,06,38,13.20
2006,10,27,06,39,13.20
2006,10,27,06,40,13.20
2006,10,27,06,41,13.20
2006,10,27,06,42,13.20
2006,10,27,06,43,13.20
2006,10,27,06,44,13.20
2006,10,27,06,45,13.30
2006,10,27,06,46,13.30
2006,10,27,06,47,13.30
2006,10,27,06,48,13.30
2006,10,27,06,49,13.30
2006,10,27,06,50,13.30
2006,10,27,06,51,13.30
2006,10,27,06,52,13.30
2006,10,27,06,53,13.30
2006,10,27,06,54,13.30
2006,10,27,06,55,13.30
2006,10,27,06,56,13.30
2006,10,27,06,57,13.30
2006,10,27,06,58,13.30
2006,10,27,06,59,13.30
2006,10,27,07,00,13.30
2006,10,27,07,01,13.30
2006,10,27,07,02,13.30
2006,10,27,07,03,13.30
2006,10,27,07,04,13.30
2006,10,27,07,05,13.30
2006,10,27,07,06,13.30
2006,10,27,07,07,13.30
2006,10,27,07,08,13.30
2006,10,27,07,09,13.30
2006,10,27,07,10,13.30
2006,10,27,07,11,13.30
2006,10,27,07,12,13.30
2006,10,27,07,13,13.30
2006,10,27,07,14,13.30
2006,10,27,07,15,13.30
2006,10,27,07,16,13.30
2006,10,27,07,17,13.30
2006,10,27,07,18,13.20
2006,10,27,07,19,13.20
2006,10,27,07,20,13.20
2006,10,27,07,21,13.20
2006,10,27,07,22,13.20
2006,10,27,07,23,13.30
2006,10,27,07,24,13.30
2006,10,27,07,25,13.30
2006,10,27,07,26,13.30
2006,10,27,07,27,13.30
2006,10,27,07,28,13.30
2006,10,27,07,29,13.30
2006,10,27,07,30,13.30
2006,10,27,07,31,13.30
2006,10,27,07,32,13.30
2006,10,27,07,33,13.30
2006,10,27,07,34,13.30
2006,10,27,07,35,13.30
2006,10,27,07,36,13.30
2006,10,27,07,37,13.30
2006,10,27,07,38,13.30
2006,10,27,07,39,13.40
2006,10,27,07,40,13.40
2006,10,27,07,41,13.40
2006,10,27,07,42,13.40
2006,10,27,07,43,13.40
2006,10,27,07,44,13.40
2006,10,27,07,45,13.40
2006,10,27,07,46,13.50
2006,10,27,07,47,13.50
2006,10,27,07,48,13.50
2006,10,27,07,49,13.40
2006,10,27,07,50,13.40
2006,10,27,07,51,13.40
2006,10,27,07,52,13.40
2006,10,27,07,53,13.40
2006,10,27,07,54,13.40
2006,10,27,07,55,13.40
2006,10,27,07,56,13.40
2006,10,27,07,57,13.40
2006,10,27,07,58,13.40
2006,10,27,07,59,13.40
2006,10,27,08,00,13.40
2006,10,27,08,01,13.40
2006,10,27,08,02,13.30
2006,10,27,08,03,13.30
2006,10,27,08,04,13.30
2006,10,27,08,05,13.30
2006,10,27,08,06,13.30
2006,10,27,08,07,13.40
2006,10,27,08,08,13.40
2006,10,27,08,09,13.40
2006,10,27,08,10,13.40
2006,10,27,08,11,13.40
2006,10,27,08,12,13.40
2006,10,27,08,13,13.40
2006,10,27,08,14,13.40
2006,10,27,08,15,13.50
2006,10,27,08,16,13.50
2006,10,27,08,17,13.50
2006,10,27,08,18,13.50
2006,10,27,08,19,13.50
2006,10,27,08,20,13.50
2006,10,27,08,21,13.50
2006,10,27,08,22,13.50
2006,10,27,08,23,13.50
2006,10,27,08,24,13.60
2006,10,27,08,25,13.60
2006,10,27,08,26,13.60
2006,10,27,08,27,13.70
2006,10,27,08,28,13.70
2006,10,27,08,29,13.70
2006,10,27,08,30,13.70
2006,10,27,08,31,13.70
2006,10,27,08,32,13.70
2006,10,27,08,33,13.70
2006,10,27,08,34,13.60
2006,10,27,08,35,13.60
2006,10,27,08,36,13.70
2006,10,27,08,37,13.70
2006,10,27,08,38,13.70
2006,10,27,08,39,13.70
2006,10,27,08,40,13.70
2006,10,27,08,41,13.70
2006,10,27,08,42,13.70
2006,10,27,08,43,13.70
2006,10,27,08,44,13.60
2006,10,27,08,45,13.60
2006,10,27,08,46,13.60
2006,10,27,08,47,13.60
2006,10,27,08,48,13.60
2006,10,27,08,49,13.70
2006,10,27,08,50,13.70
2006,10,27,08,51,13.70
2006,10,27,08,52,13.70
2006,10,27,08,53,13.70
2006,10,27,08,54,13.70
2006,10,27,08,55,13.70
2006,10,27,08,56,13.70
2006,10,27,08,57,13.70
2006,10,27,08,58,13.70
2006,10,27,08,59,13.70
2006,10,27,09,00,13.70
2006,10,27,09,01,13.70
2006,10,27,09,02,13.70
2006,10,27,09,03,13.70
2006,10,27,09,04,13.70
2006,10,27,09,05,13.70
2006,10,27,09,06,13.70
2006,10,27,09,07,13.70
2006,10,27,09,08,13.70
2006,10,27,09,09,13.70
2006,10,27,09,10,13.70
2006,10,27,09,11,13.70
2006,10,27,09,12,13.70
2006,10,27,09,13,13.70
2006,10,27,09,14,13.70
2006,10,27,09,15,13.70
2006,10,27,09,16,13.80
2006,10,27,09,17,13.80
2006,10,27,09,18,13.80
2006,10,27,09,19,13.80
2006,10,27,09,20,13.80
2006,10,27,09,21,13.80
2006,10,27,09,22,13.80
2006,10,27,09,23,13.70
2006,10,27,09,24,13.70
2006,10,27,09,25,13.80
2006,10,27,09,26,13.80
2006,10,27,09,27,13.80
2006,10,27,09,28,13.80
2006,10,27,09,29,13.80
2006,10,27,09,30,13.80
2006,10,27,09,31,13.90
2006,10,27,09,32,13.90
2006,10,27,09,33,13.90
2006,10,27,09,34,13.90
2006,10,27,09,35,13.90
2006,10,27,09,36,13.90
2006,10,27,09,37,13.90
2006,10,27,09,38,13.90
2006,10,27,09,39,13.90
2006,10,27,09,40,14.00
2006,10,27,09,41,14.00
2006,10,27,09,42,14.00
2006,10,27,09,43,14.00
2006,10,27,09,44,14.00
2006,10,27,09,45,14.00
2006,10,27,09,46,14.00
2006,10,27,09,47,13.90
2006,10,27,09,48,14.00
2006,10,27,09,49,14.00
2006,10,27,09,50,14.00
2006,10,27,09,51,14.00
2006,10,27,09,52,14.00
2006,10,27,09,53,14.00
2006,10,27,09,54,14.00
2006,10,27,09,55,14.00
2006,10,27,09,56,14.10
2006,10,27,09,57,14.10
2006,10,27,09,58,14.10
2006,10,27,09,59,14.10
2006,10,27,10,00,14.10
2006,10,27,10,01,14.10
2006,10,27,10,02,14.10
2006,10,27,10,03,14.20
2006,10,27,10,04,14.20
2006,10,27,10,05,14.20
2006,10,27,10,06,14.20
2006,10,27,10,07,14.20
2006,10,27,10,08,14.20
2006,10,27,10,09,14.20
2006,10,27,10,10,14.20
2006,10,27,10,11,14.20
2006,10,27,10,12,14.20
2006,10,27,10,13,14.20
2006,10,27,10,14,14.20
2006,10,27,10,15,14.20
2006,10,27,10,16,14.20
2006,10,27,10,17,14.30
2006,10,27,10,18,14.30
2006,10,27,10,19,14.30
2006,10,27,10,20,14.30
2006,10,27,10,21,14.30
2006,10,27,10,22,14.20
2006,10,27,10,23,14.20
2006,10,27,10,24,14.30
2006,10,27,10,25,14.30
2006,10,27,10,26,14.30
2006,10,27,10,27,14.30
2006,10,27,10,28,14.30
2006,10,27,10,29,14.30
2006,10,27,10,30,14.30
2006,10,27,10,31,14.20
2006,10,27,10,32,14.20
2006,10,27,10,33,14.30
2006,10,27,10,34,14.30
2006,10,27,10,35,14.30
2006,10,27,10,36,14.30
2006,10,27,10,37,14.30
2006,10,27,10,38,14.40
2006,10,27,10,39,14.40
2006,10,27,10,40,14.40
2006,10,27,10,41,14.50
2006,10,27,10,42,14.50
2006,10,27,10,43,14.50
2006,10,27,10,44,14.50
2006,10,27,10,45,14.60
2006,10,27,10,46,14.50
2006,10,27,10,47,14.50
2006,10,27,10,48,14.50
2006,10,27,10,49,14.50
2006,10,27,10,50,14.50
2006,10,27,10,51,14.50
2006,10,27,10,52,14.50
2006,10,27,10,53,14.50
2006,10,27,10,54,14.50
2006,10,27,10,55,14.50
2006,10,27,10,56,14.50
2006,10,27,10,57,14.40
2006,10,27,10,58,14.40
2006,10,27,10,59,14.40
2006,10,27,11,00,14.50
2006,10,27,11,01,14.50
2006,10,27,11,02,14.50
2006,10,27,11,03,14.50
2006,10,27,11,04,14.50
2006,10,27,11,05,14.50
2006,10,27,11,06,14.50
2006,10,27,11,07,14.50
2006,10,27,11,08,14.60
2006,10,27,11,09,14.60
2006,10,27,11,10,14.60
2006,10,27,11,11,14.60
2006,10,27,11,12,14.60
2006,10,27,11,13,14.70
2006,10,27,11,14,14.80
2006,10,27,11,15,14.80
2006,10,27,11,16,14.80
2006,10,27,11,17,14.80
2006,10,27,11,18,14.70
2006,10,27,11,19,14.70
2006,10,27,11,20,14.60
2006,10,27,11,21,14.60
2006,10,27,11,22,14.50
2006,10,27,11,23,14.50
2006,10,27,11,24,14.50
2006,10,27,11,25,14.40
2006,10,27,11,26,14.40
2006,10,27,11,27,14.40
2006,10,27,11,28,14.30
2006,10,27,11,29,14.40
2006,10,27,11,30,14.40
2006,10,27,11,31,14.40
2006,10,27,11,32,14.40
2006,10,27,11,33,14.40
2006,10,27,11,34,14.30
2006,10,27,11,35,14.30
2006,10,27,11,36,14.30
2006,10,27,11,37,14.30
2006,10,27,11,38,14.30
2006,10,27,11,39,14.20
2006,10,27,11,40,14.20
2006,10,27,11,41,14.20
2006,10,27,11,42,14.20
2006,10,27,11,43,14.20
2006,10,27,11,44,14.20
2006,10,27,11,45,14.20
2006,10,27,11,46,14.20
2006,10,27,11,47,14.30
2006,10,27,11,48,14.40
2006,10,27,11,49,14.40
2006,10,27,11,50,14.40
2006,10,27,11,51,14.40
2006,10,27,11,52,14.40
2006,10,27,11,53,14.40
2006,10,27,11,54,14.50
2006,10,27,11,55,14.50
2006,10,27,11,56,14.40
2006,10,27,11,57,14.40
2006,10,27,11,58,14.30
2006,10,27,11,59,14.30
2006,10,27,12,00,14.40
2006,10,27,12,01,14.50
2006,10,27,12,02,14.50
2006,10,27,12,03,14.60
2006,10,27,12,04,14.60
2006,10,27,12,05,14.70
2006,10,27,12,06,14.70
2006,10,27,12,07,14.80
2006,10,27,12,08,14.80
2006,10,27,12,09,14.80
2006,10,27,12,10,14.80
2006,10,27,12,11,14.70
2006,10,27,12,12,14.70
2006,10,27,12,13,14.70
2006,10,27,12,14,14.70
2006,10,27,12,15,14.80
2006,10,27,12,16,14.80
2006,10,27,12,17,14.80
2006,10,27,12,18,14.70
2006,10,27,12,19,14.60
2006,10,27,12,20,14.50
2006,10,27,12,21,14.40
2006,10,27,12,22,14.30
2006,10,27,12,23,14.00
2006,10,27,12,24,13.60
2006,10,27,12,25,13.20
2006,10,27,12,26,13.00
2006,10,27,12,27,12.80
2006,10,27,12,28,12.70
2006,10,27,12,29,12.60
2006,10,27,12,30,12.50
2006,10,27,12,31,12.60
2006,10,27,12,32,12.70
2006,10,27,12,33,12.70
2006,10,27,12,34,12.80
2006,10,27,12,35,13.00
2006,10,27,12,36,13.20
2006,10,27,12,37,13.30
2006,10,27,12,38,13.50
2006,10,27,12,39,13.60
2006,10,27,12,40,13.60
2006,10,27,12,41,13.70
2006,10,27,12,42,13.70
2006,10,27,12,43,13.70
2006,10,27,12,44,13.70
2006,10,27,12,45,13.70
2006,10,27,12,46,13.70
2006,10,27,12,47,13.70
2006,10,27,12,48,13.70
2006,10,27,12,49,13.70
2006,10,27,12,50,13.70
2006,10,27,12,51,13.70
2006,10,27,12,52,13.70
2006,10,27,12,53,13.70
2006,10,27,12,54,13.60
2006,10,27,12,55,13.60
2006,10,27,12,56,13.50
2006,10,27,12,57,13.50
2006,10,27,12,58,13.50
2006,10,27,12,59,13.50
2006,10,27,13,00,13.30
2006,10,27,13,01,13.30
2006,10,27,13,02,13.30
2006,10,27,13,03,13.30
2006,10,27,13,04,13.30
2006,10,27,13,05,13.30
2006,10,27,13,06,13.30
2006,10,27,13,07,13.30
2006,10,27,13,08,13.30
2006,10,27,13,09,13.30
2006,10,27,13,10,13.30
2006,10,27,13,11,13.30
2006,10,27,13,12,13.30
2006,10,27,13,13,13.30
2006,10,27,13,14,13.40
2006,10,27,13,15,13.50
2006,10,27,13,16,13.50
2006,10,27,13,17,13.50
2006,10,27,13,18,13.40
2006,10,27,13,19,13.40
2006,10,27,13,20,13.30
2006,10,27,13,21,13.30
2006,10,27,13,22,13.30
2006,10,27,13,23,13.40
2006,10,27,13,24,13.50
2006,10,27,13,25,13.60
2006,10,27,13,26,13.60
2006,10,27,13,27,13.60
2006,10,27,13,28,13.50
2006,10,27,13,29,13.50
2006,10,27,13,30,13.60
2006,10,27,13,31,13.60
2006,10,27,13,32,13.70
2006,10,27,13,33,13.70
2006,10,27,13,34,13.80
2006,10,27,13,35,13.70
2006,10,27,13,36,13.60
2006,10,27,13,37,13.50
2006,10,27,13,38,13.50
2006,10,27,13,39,13.40
2006,10,27,13,40,13.40
2006,10,27,13,41,13.50
2006,10,27,13,42,13.60
2006,10,27,13,43,13.70
2006,10,27,13,44,13.90
2006,10,27,13,45,14.00
2006,10,27,13,46,14.10
2006,10,27,13,47,14.20
2006,10,27,13,48,14.10
2006,10,27,13,49,14.00
2006,10,27,13,50,14.00
2006,10,27,13,51,14.00
2006,10,27,13,52,14.20
2006,10,27,13,53,14.20
2006,10,27,13,54,14.20
2006,10,27,13,55,14.20
2006,10,27,13,56,14.30
2006,10,27,13,57,14.40
2006,10,27,13,58,14.50
2006,10,27,13,59,14.60
2006,10,27,14,00,14.60
2006,10,27,14,01,14.70
2006,10,27,14,02,14.70
2006,10,27,14,03,14.80
2006,10,27,14,04,14.80
2006,10,27,14,05,14.90
2006,10,27,14,06,14.90
2006,10,27,14,07,15.00
2006,10,27,14,08,15.10
2006,10,27,14,09,15.30
2006,10,27,14,10,15.30
2006,10,27,14,11,15.30
2006,10,27,14,12,15.20
2006,10,27,14,13,15.20
2006,10,27,14,14,15.10
2006,10,27,14,15,15.10
2006,10,27,14,16,15.00
2006,10,27,14,17,14.80
2006,10,27,14,18,14.70
2006,10,27,14,19,14.60
2006,10,27,14,20,14.70
2006,10,27,14,21,14.80
2006,10,27,14,22,14.80
2006,10,27,14,23,14.80
2006,10,27,14,24,14.80
2006,10,27,14,25,14.90
2006,10,27,14,26,14.90
2006,10,27,14,27,14.90
2006,10,27,14,28,15.00
2006,10,27,14,29,15.00
2006,10,27,14,30,15.00
2006,10,27,14,31,15.00
2006,10,27,14,32,14.90
2006,10,27,14,33,14.80
2006,10,27,14,34,14.80
2006,10,27,14,35,14.70
2006,10,27,14,36,14.60
2006,10,27,14,37,14.50
2006,10,27,14,38,14.50
2006,10,27,14,39,14.50
2006,10,27,14,40,14.40
2006,10,27,14,41,14.30
2006,10,27,14,42,14.40
2006,10,27,14,43,14.50
2006,10,27,14,44,14.60
2006,10,27,14,45,14.60
2006,10,27,14,46,14.80
2006,10,27,14,47,14.80
2006,10,27,14,48,14.80
2006,10,27,14,49,14.80
2006,10,27,14,50,14.80
2006,10,27,14,51,14.80
2006,10,27,14,52,14.80
2006,10,27,14,53,14.80
2006,10,27,14,54,14.80
2006,10,27,14,55,14.90
2006,10,27,14,56,14.90
2006,10,27,14,57,14.90
2006,10,27,14,58,15.00
2006,10,27,14,59,15.00
2006,10,27,15,00,15.00
2006,10,27,15,01,15.00
2006,10,27,15,02,15.00
2006,10,27,15,03,15.00
2006,10,27,15,04,14.90
2006,10,27,15,05,14.90
2006,10,27,15,06,14.80
2006,10,27,15,07,14.60
2006,10,27,15,08,14.40
2006,10,27,15,09,14.20
2006,10,27,15,10,14.10
2006,10,27,15,11,14.00
2006,10,27,15,12,13.90
2006,10,27,15,13,13.90
2006,10,27,15,14,13.80
2006,10,27,15,15,13.80
2006,10,27,15,16,13.80
2006,10,27,15,17,13.80
2006,10,27,15,18,13.80
2006,10,27,15,19,13.80
2006,10,27,15,20,13.80
2006,10,27,15,21,13.80
2006,10,27,15,22,13.80
2006,10,27,15,23,13.90
2006,10,27,15,24,13.90
2006,10,27,15,25,14.00
2006,10,27,15,26,14.00
2006,10,27,15,27,14.10
2006,10,27,15,28,14.10
2006,10,27,15,29,14.20
2006,10,27,15,30,14.10
2006,10,27,15,31,14.00
2006,10,27,15,32,14.00
2006,10,27,15,33,14.00
2006,10,27,15,34,13.90
2006,10,27,15,35,14.00
2006,10,27,15,36,14.00
2006,10,27,15,37,14.00
2006,10,27,15,38,14.00
2006,10,27,15,39,14.00
2006,10,27,15,40,14.10
2006,10,27,15,41,14.10
2006,10,27,15,42,14.10
2006,10,27,15,43,14.20
2006,10,27,15,44,14.20
2006,10,27,15,45,14.20
2006,10,27,15,46,14.20
2006,10,27,15,47,14.20
2006,10,27,15,48,14.20
2006,10,27,15,49,14.20
2006,10,27,15,50,14.20
2006,10,27,15,51,14.30
2006,10,27,15,52,14.30
2006,10,27,15,53,14.30
2006,10,27,15,54,14.20
2006,10,27,15,55,14.20
2006,10,27,15,56,14.10
2006,10,27,15,57,14.00
2006,10,27,15,58,14.00
2006,10,27,15,59,14.00
2006,10,27,16,00,13.90
2006,10,27,16,01,13.90
2006,10,27,16,02,13.80
2006,10,27,16,03,13.70
2006,10,27,16,04,13.70
2006,10,27,16,05,13.70
2006,10,27,16,06,13.70
2006,10,27,16,07,13.70
2006,10,27,16,08,13.70
2006,10,27,16,09,13.70
2006,10,27,16,10,13.70
2006,10,27,16,11,13.70
2006,10,27,16,12,13.70
2006,10,27,16,13,13.70
2006,10,27,16,14,13.70
2006,10,27,16,15,13.70
2006,10,27,16,16,13.70
2006,10,27,16,17,13.60
2006,10,27,16,18,13.60
2006,10,27,16,19,13.60
2006,10,27,16,20,13.60
2006,10,27,16,21,13.60
2006,10,27,16,22,13.50
2006,10,27,16,23,13.50
2006,10,27,16,24,13.50
2006,10,27,16,25,13.50
2006,10,27,16,26,13.50
2006,10,27,16,27,13.50
2006,10,27,16,28,13.50
2006,10,27,16,29,13.50
2006,10,27,16,30,13.50
2006,10,27,16,31,13.50
2006,10,27,16,32,13.50
2006,10,27,16,33,13.40
2006,10,27,16,34,13.40
2006,10,27,16,35,13.40
2006,10,27,16,36,13.30
2006,10,27,16,37,13.30
2006,10,27,16,38,13.30
2006,10,27,16,39,13.30
2006,10,27,16,40,13.30
2006,10,27,16,41,13.30
2006,10,27,16,42,13.30
2006,10,27,16,43,13.30
2006,10,27,16,44,13.30
2006,10,27,16,45,13.30
2006,10,27,16,46,13.20
2006,10,27,16,47,13.20
2006,10,27,16,48,13.20
2006,10,27,16,49,13.20
2006,10,27,16,50,13.30
2006,10,27,16,51,13.30
2006,10,27,16,52,13.30
2006,10,27,16,53,13.30
2006,10,27,16,54,13.30
2006,10,27,16,55,13.30
2006,10,27,16,56,13.30
2006,10,27,16,57,13.30
2006,10,27,16,58,13.30
2006,10,27,16,59,13.30
2006,10,27,17,00,13.30
2006,10,27,17,01,13.30
2006,10,27,17,02,13.30
2006,10,27,17,03,13.20
2006,10,27,17,04,13.20
2006,10,27,17,05,13.20
2006,10,27,17,06,13.20
2006,10,27,17,07,13.20
2006,10,27,17,08,13.20
2006,10,27,17,09,13.20
2006,10,27,17,10,13.20
2006,10,27,17,11,13.20
2006,10,27,17,12,13.20
2006,10,27,17,13,13.20
2006,10,27,17,14,13.20
2006,10,27,17,15,13.20
2006,10,27,17,16,13.20
2006,10,27,17,17,13.30
2006,10,27,17,18,13.30
2006,10,27,17,19,13.30